This is the latest recevied weather packets stored in our database for station/object SP4LIN-15. If no packets are shown the sender has not sent any weather packets the latest 10 day(s).
| Time | Temp. | Humidity | Pressure | Rain* | Wind** | Luminosity | Snow |
|---|---|---|---|---|---|---|---|
| 1777733079 | 30° C | 22% | 1011.7 hPa | 0 mm | - | - | - |
| 1777732179 | 30° C | 21% | 1012 hPa | 0 mm | - | - | - |
| 1777731279 | 30° C | 22% | 1012.1 hPa | 0 mm | - | - | - |
| 1777730379 | 29.44° C | 22% | 1012.4 hPa | 0 mm | - | - | - |
| 1777729479 | 30° C | 22% | 1012.3 hPa | 0 mm | - | - | - |
| 1777728579 | 28.89° C | 23% | 1012.6 hPa | 0 mm | - | - | - |
| 1777727679 | 28.89° C | 23% | 1012.6 hPa | 0 mm | - | - | - |
| 1777726779 | 28.89° C | 22% | 1012.9 hPa | 0 mm | - | - | - |
| 1777725879 | 29.44° C | 22% | 1013 hPa | 0 mm | - | - | - |
| 1777724979 | 29.44° C | 23% | 1013.3 hPa | 0 mm | - | - | - |
| 1777724079 | 30° C | 23% | 1013.4 hPa | 0 mm | - | - | - |
| 1777723179 | 28.89° C | 22% | 1013.6 hPa | 0 mm | - | - | - |
| 1777722279 | 30° C | 21% | 1013.8 hPa | 0 mm | - | - | - |
| 1777721379 | 30° C | 22% | 1014 hPa | 0 mm | - | - | - |
| 1777720479 | 30.56° C | 22% | 1014.1 hPa | 0 mm | - | - | - |
| 1777719579 | 31.67° C | 22% | 1014.2 hPa | 0 mm | - | - | - |
| 1777718679 | 30° C | 22% | 1014.4 hPa | 0 mm | - | - | - |
| 1777717779 | 30.56° C | 22% | 1014.5 hPa | 0 mm | - | - | - |
| 1777716879 | 30° C | 23% | 1014.7 hPa | 0 mm | - | - | - |
| 1777715979 | 29.44° C | 23% | 1015 hPa | 0 mm | - | - | - |
| 1777715079 | 28.33° C | 25% | 1015 hPa | 0 mm | - | - | - |
| 1777714179 | 28.33° C | 25% | 1015 hPa | 0 mm | - | - | - |
| 1777713279 | 28.33° C | 26% | 1015.1 hPa | 0 mm | - | - | - |
| 1777712379 | 27.78° C | 26% | 1015.3 hPa | 0 mm | - | - | - |
| 1777711479 | 28.89° C | 27% | 1015.3 hPa | 0 mm | - | - | - |
* Rain latest hour (hover to see other rain measurements)
** Current wind speed in m/s (hover to see current wind gust speed)